DEDAF EDGS-EDWI

Flight info

Callsign DEDAF
Flight time 1h 13m
Altitude 4500
Route DCT
Aircraft BT36/L-BDFGLORY/S

Departure

Time 2026-05-04 17:58
Airport Siegerland Airport (EDGS)

Arrival

Time 2026-05-04 19:11
Airport JadeWeser Airport (EDWI)
Time Latitude Longitude Altitude Speed Heading
2026-05-04 17:51 50.70660 8.07727 1958 ft 0 kts 157°
2026-05-04 17:53 50.70658 8.07729 1958 ft 3 kts 135°
2026-05-04 17:54 50.70656 8.07741 1958 ft 0 kts 98°
2026-05-04 17:54 50.70657 8.07725 1958 ft 3 kts 94°
2026-05-04 17:54 50.70667 8.07736 1958 ft 0 kts 26°
2026-05-04 17:55 50.70705 8.07761 1958 ft 14 kts 10°
2026-05-04 17:56 50.70767 8.07794 1958 ft 12 kts 39°
2026-05-04 17:56 50.70751 8.07915 1958 ft 18 kts 127°
2026-05-04 17:56 50.70711 8.07985 1958 ft 0 kts 132°
2026-05-04 17:56 50.70683 8.08036 1958 ft 13 kts 129°
2026-05-04 17:57 50.70595 8.08219 1957 ft 28 kts 126°
2026-05-04 17:57 50.70485 8.08416 1957 ft 16 kts 159°
2026-05-04 17:57 50.70378 8.08329 1956 ft 8 kts 173°
2026-05-04 17:57 50.70387 8.08364 1955 ft 4 kts 37°
2026-05-04 17:58 50.70608 8.08634 1960 ft 82 kts 37°
2026-05-04 17:58 50.71112 8.09315 2318 ft 103 kts 40°
2026-05-04 17:58 50.71708 8.10079 2718 ft 120 kts 36°
2026-05-04 17:58 50.72367 8.10942 3153 ft 125 kts 38°
2026-05-04 17:59 50.73059 8.11835 3510 ft 134 kts 39°
2026-05-04 17:59 50.73796 8.12766 3855 ft 137 kts 35°
2026-05-04 17:59 50.75523 8.14367 4360 ft 155 kts 20°
2026-05-04 18:00 50.76518 8.14917 4739 ft 148 kts 17°
2026-05-04 18:00 50.77485 8.15343 5219 ft 141 kts 11°
2026-05-04 18:00 50.78412 8.15217 5384 ft 140 kts 324°
2026-05-04 18:00 50.78972 8.13995 5294 ft 142 kts 287°
2026-05-04 18:01 50.79506 8.12634 5208 ft 152 kts 310°
2026-05-04 18:01 50.80307 8.11546 5120 ft 155 kts 317°
2026-05-04 18:01 50.81151 8.10479 5028 ft 156 kts 317°
2026-05-04 18:02 50.82857 8.08334 4837 ft 157 kts 317°
2026-05-04 18:02 50.83761 8.07455 4722 ft 152 kts 345°
2026-05-04 18:02 50.84728 8.07803 4591 ft 141 kts 39°
2026-05-04 18:02 50.85199 8.09070 4487 ft 131 kts 78°
2026-05-04 18:03 50.85140 8.10553 4485 ft 144 kts 114°
2026-05-04 18:03 50.84483 8.11739 4495 ft 147 kts 153°
2026-05-04 18:03 50.83494 8.12075 4497 ft 148 kts 181°
2026-05-04 18:03 50.82442 8.12115 4495 ft 155 kts 180°
2026-05-04 18:04 50.81347 8.12184 4495 ft 159 kts 179°
2026-05-04 18:04 50.80235 8.12261 4496 ft 160 kts 179°
2026-05-04 18:04 50.78179 8.11445 4481 ft 159 kts 232°
2026-05-04 18:05 50.77874 8.09792 4477 ft 162 kts 272°
2026-05-04 18:05 50.78363 8.08210 4478 ft 168 kts 314°
2026-05-04 18:05 50.79452 8.07531 4478 ft 173 kts 352°
2026-05-04 18:05 50.80659 8.07482 4482 ft 173 kts 357°
2026-05-04 18:06 50.83063 8.07361 4487 ft 173 kts 355°
2026-05-04 18:06 50.84271 8.07328 4483 ft 174 kts 359°
2026-05-04 18:06 50.85469 8.07322 4486 ft 172 kts 357°
2026-05-04 18:07 50.86670 8.07299 4483 ft 172 kts 358°
2026-05-04 18:07 50.87865 8.07288 4488 ft 173 kts 358°
2026-05-04 18:07 50.89072 8.07278 4489 ft 174 kts 358°
2026-05-04 18:07 50.90269 8.07270 4490 ft 174 kts 358°
2026-05-04 18:08 50.91478 8.07261 4492 ft 174 kts 358°
2026-05-04 18:08 50.92692 8.07234 4491 ft 174 kts 357°
2026-05-04 18:08 50.93898 8.07391 4490 ft 174 kts
2026-05-04 18:08 50.95092 8.07212 4483 ft 172 kts 341°
2026-05-04 18:09 50.97244 8.05610 4486 ft 172 kts 335°
2026-05-04 18:09 50.99490 8.04267 4492 ft 172 kts 340°
2026-05-04 18:10 51.00657 8.03858 4486 ft 173 kts 352°
2026-05-04 18:10 51.01857 8.04015 4478 ft 174 kts 14°
2026-05-04 18:10 51.02900 8.04957 4479 ft 174 kts 43°
2026-05-04 18:10 51.03493 8.06601 4478 ft 173 kts 78°
2026-05-04 18:11 51.03409 8.08469 4476 ft 170 kts 114°
2026-05-04 18:11 51.02671 8.09848 4475 ft 164 kts 151°
2026-05-04 18:11 51.01587 8.10282 4484 ft 162 kts 180°
2026-05-04 18:11 51.00462 8.10327 4486 ft 162 kts 179°
2026-05-04 18:12 50.99339 8.10437 4488 ft 162 kts 178°
2026-05-04 18:12 50.98210 8.10574 4490 ft 162 kts 177°
2026-05-04 18:12 50.97098 8.10714 4489 ft 162 kts 178°
2026-05-04 18:12 50.96032 8.10339 4479 ft 160 kts 214°
2026-05-04 18:13 50.95365 8.08972 4479 ft 160 kts 249°
2026-05-04 18:13 50.95382 8.07209 4477 ft 165 kts 287°
2026-05-04 18:13 50.97304 8.05426 4481 ft 174 kts 354°
2026-05-04 18:14 50.98513 8.05302 4484 ft 174 kts 354°
2026-05-04 18:14 50.99719 8.05149 4486 ft 174 kts 349°
2026-05-04 18:14 51.00873 8.04630 4487 ft 172 kts 341°
2026-05-04 18:15 51.03057 8.05614 4477 ft 174 kts 51°
2026-05-04 18:15 51.03101 8.09128 4478 ft 167 kts 129°
2026-05-04 18:15 51.02167 8.10116 4479 ft 162 kts 167°
2026-05-04 18:16 51.01063 8.10272 4481 ft 163 kts 179°
2026-05-04 18:16 50.99935 8.10370 4484 ft 162 kts 178°
2026-05-04 18:16 50.98812 8.10501 4486 ft 162 kts 177°
2026-05-04 18:17 50.96571 8.10688 4484 ft 160 kts 191°
2026-05-04 18:17 50.95644 8.09775 4475 ft 160 kts 231°
2026-05-04 18:17 50.95658 8.06453 4477 ft 167 kts 307°
2026-05-04 18:18 50.96664 8.05535 4477 ft 173 kts 347°
2026-05-04 18:18 50.97869 8.05366 4480 ft 174 kts 354°
2026-05-04 18:18 50.99074 8.05239 4486 ft 174 kts 354°
2026-05-04 18:18 51.00281 8.05094 4487 ft 174 kts 353°
2026-05-04 18:19 51.02696 8.04938 4490 ft 173 kts 358°
2026-05-04 18:19 51.03892 8.04938 4490 ft 172 kts 358°
2026-05-04 18:19 51.05092 8.04935 4490 ft 172 kts 358°
2026-05-04 18:20 51.06288 8.04935 4493 ft 172 kts 357°
2026-05-04 18:20 51.07509 8.04936 4479 ft 183 kts 357°
2026-05-04 18:20 51.08824 8.04941 4476 ft 193 kts 357°
2026-05-04 18:20 51.10181 8.04943 4483 ft 197 kts 358°
2026-05-04 18:21 51.11569 8.04944 4487 ft 200 kts 357°
2026-05-04 18:21 51.12968 8.04945 4490 ft 201 kts 357°
2026-05-04 18:21 51.14372 8.04946 4493 ft 202 kts 357°
2026-05-04 18:21 51.15778 8.04949 4488 ft 203 kts 357°
2026-05-04 18:22 51.17193 8.04951 4487 ft 203 kts 358°
2026-05-04 18:22 51.18608 8.04953 4485 ft 203 kts 358°
2026-05-04 18:22 51.20023 8.04956 4487 ft 204 kts 358°
2026-05-04 18:22 51.21441 8.04958 4488 ft 204 kts 358°
2026-05-04 18:23 51.22847 8.04959 4483 ft 204 kts 358°
2026-05-04 18:23 51.24257 8.04962 4485 ft 202 kts 358°
2026-05-04 18:23 51.25666 8.04964 4483 ft 203 kts 358°
2026-05-04 18:23 51.27095 8.04963 4340 ft 210 kts 358°
2026-05-04 18:24 51.28578 8.04969 4088 ft 214 kts 358°
2026-05-04 18:24 51.30067 8.04968 3843 ft 215 kts 358°
2026-05-04 18:24 51.31573 8.04970 3586 ft 216 kts 358°
2026-05-04 18:24 51.33059 8.04971 3484 ft 210 kts 358°
2026-05-04 18:25 51.34499 8.04974 3479 ft 205 kts 358°
2026-05-04 18:25 51.35916 8.04978 3477 ft 203 kts 358°
2026-05-04 18:25 51.37319 8.04982 3475 ft 201 kts 358°
2026-05-04 18:25 51.38716 8.04983 3474 ft 200 kts 358°
2026-05-04 18:26 51.40110 8.04983 3474 ft 200 kts 358°
2026-05-04 18:26 51.41505 8.04986 3438 ft 202 kts 358°
2026-05-04 18:26 51.42923 8.04988 3338 ft 204 kts 358°
2026-05-04 18:26 51.44347 8.04991 3235 ft 205 kts 359°
2026-05-04 18:27 51.45764 8.04991 3132 ft 204 kts 358°
2026-05-04 18:27 51.47182 8.04994 3029 ft 203 kts 359°
2026-05-04 18:27 51.48579 8.04996 2912 ft 204 kts 359°
2026-05-04 18:27 51.50002 8.04998 2770 ft 205 kts 359°
2026-05-04 18:28 51.51433 8.05000 2617 ft 206 kts 359°
2026-05-04 18:28 51.52865 8.05002 2484 ft 205 kts 360°
2026-05-04 18:28 51.54273 8.05005 2478 ft 200 kts 359°
2026-05-04 18:28 51.55658 8.05006 2477 ft 199 kts 359°
2026-05-04 18:29 51.57036 8.05009 2472 ft 198 kts 359°
2026-05-04 18:29 51.58410 8.05011 2470 ft 197 kts 359°
2026-05-04 18:29 51.59776 8.05013 2469 ft 196 kts 359°
2026-05-04 18:29 51.61155 8.05014 2368 ft 201 kts 359°
2026-05-04 18:30 51.63505 8.05019 2115 ft 205 kts 359°
2026-05-04 18:30 51.64952 8.05020 1979 ft 204 kts 360°
2026-05-04 18:30 51.66335 8.05022 1976 ft 200 kts 360°
2026-05-04 18:31 51.67736 8.05024 1977 ft 198 kts 359°
2026-05-04 18:31 51.69109 8.05026 1975 ft 197 kts 360°
2026-05-04 18:31 51.70478 8.05028 1975 ft 196 kts 360°
2026-05-04 18:31 51.71823 8.05031 1968 ft 196 kts 360°
2026-05-04 18:32 51.73227 8.05033 1815 ft 201 kts 360°
2026-05-04 18:32 51.74635 8.05034 1665 ft 203 kts
2026-05-04 18:32 51.76035 8.05036 1513 ft 204 kts
2026-05-04 18:32 51.77439 8.05039 1469 ft 200 kts 360°
2026-05-04 18:33 51.78821 8.05044 1463 ft 197 kts
2026-05-04 18:33 51.80187 8.05047 1463 ft 196 kts 360°
2026-05-04 18:33 51.81545 8.05046 1458 ft 195 kts 359°
2026-05-04 18:33 51.82899 8.05051 1456 ft 194 kts 360°
2026-05-04 18:34 51.84248 8.05047 1454 ft 194 kts 360°
2026-05-04 18:34 51.85598 8.05049 1457 ft 194 kts 359°
2026-05-04 18:34 51.86954 8.05053 1455 ft 195 kts 359°
2026-05-04 18:34 51.88313 8.05055 1458 ft 196 kts 359°
2026-05-04 18:35 51.89676 8.05055 1460 ft 196 kts 359°
2026-05-04 18:35 51.91034 8.05058 1459 ft 195 kts 360°
2026-05-04 18:35 51.92391 8.05063 1457 ft 195 kts 360°
2026-05-04 18:35 51.93747 8.05064 1456 ft 194 kts 359°
2026-05-04 18:36 51.95100 8.05066 1458 ft 194 kts 360°
2026-05-04 18:36 51.96454 8.05068 1457 ft 194 kts 360°
2026-05-04 18:36 51.97803 8.05069 1458 ft 194 kts 360°
2026-05-04 18:36 51.99157 8.05072 1456 ft 194 kts 360°
2026-05-04 18:37 52.00511 8.05073 1454 ft 195 kts 360°
2026-05-04 18:37 52.01870 8.05076 1457 ft 196 kts 360°
2026-05-04 18:37 52.03231 8.05078 1454 ft 196 kts 360°
2026-05-04 18:37 52.04594 8.05079 1457 ft 195 kts 359°
2026-05-04 18:38 52.05939 8.05082 1455 ft 196 kts 359°
2026-05-04 18:38 52.07310 8.05085 1452 ft 197 kts 359°
2026-05-04 18:38 52.08677 8.05085 1459 ft 197 kts 360°
2026-05-04 18:38 52.10048 8.05088 1456 ft 198 kts 360°
2026-05-04 18:39 52.11422 8.05090 1457 ft 198 kts 360°
2026-05-04 18:39 52.12798 8.05092 1458 ft 197 kts 359°
2026-05-04 18:39 52.14169 8.05093 1457 ft 197 kts 360°
2026-05-04 18:39 52.15543 8.05096 1459 ft 197 kts 359°
2026-05-04 18:40 52.16912 8.05099 1457 ft 197 kts 360°
2026-05-04 18:40 52.18279 8.05101 1450 ft 196 kts 360°
2026-05-04 18:40 52.19639 8.05101 1457 ft 194 kts 359°
2026-05-04 18:40 52.20997 8.05104 1460 ft 196 kts 359°
2026-05-04 18:41 52.22360 8.05081 1464 ft 196 kts 359°
2026-05-04 18:41 52.23731 8.05022 1461 ft 198 kts 357°
2026-05-04 18:41 52.25103 8.04850 1460 ft 198 kts 352°
2026-05-04 18:41 52.26450 8.04463 1503 ft 194 kts 349°
2026-05-04 18:42 52.27763 8.04047 1654 ft 191 kts 349°
2026-05-04 18:42 52.29054 8.03641 1806 ft 188 kts 349°
2026-05-04 18:42 52.30342 8.03238 1954 ft 188 kts 349°
2026-05-04 18:42 52.31619 8.02823 2105 ft 187 kts 348°
2026-05-04 18:43 52.32889 8.02377 2254 ft 186 kts 347°
2026-05-04 18:43 52.34152 8.01901 2405 ft 187 kts 346°
2026-05-04 18:43 52.35429 8.01386 2456 ft 192 kts 345°
2026-05-04 18:43 52.36713 8.00836 2456 ft 195 kts 344°
2026-05-04 18:44 52.38030 8.00239 2463 ft 197 kts 343°
2026-05-04 18:44 52.38918 7.99818 2464 ft 197 kts 343°
2026-05-04 18:44 52.40629 7.98812 2464 ft 198 kts 339°
2026-05-04 18:44 52.41957 7.98247 2459 ft 198 kts 354°
2026-05-04 18:45 52.43338 7.98245 2460 ft 198 kts
2026-05-04 18:45 52.44713 7.98394 2460 ft 198 kts
2026-05-04 18:45 52.46091 7.98503 2459 ft 198 kts
2026-05-04 18:45 52.47469 7.98586 2459 ft 198 kts
2026-05-04 18:46 52.48848 7.98674 2466 ft 199 kts
2026-05-04 18:46 52.50226 7.98769 2465 ft 197 kts
2026-05-04 18:46 52.51589 7.98848 2464 ft 195 kts
2026-05-04 18:46 52.52943 7.98933 2465 ft 194 kts
2026-05-04 18:47 52.54291 7.99020 2464 ft 194 kts
2026-05-04 18:47 52.55638 7.99094 2464 ft 193 kts
2026-05-04 18:47 52.56979 7.99132 2463 ft 193 kts
2026-05-04 18:47 52.58320 7.99137 2461 ft 193 kts
2026-05-04 18:48 52.59662 7.99109 2461 ft 193 kts 360°
2026-05-04 18:48 52.61006 7.99047 2462 ft 193 kts 360°
2026-05-04 18:48 52.62354 7.98950 2463 ft 194 kts 358°
2026-05-04 18:48 52.63704 7.98821 2464 ft 194 kts 358°
2026-05-04 18:49 52.65052 7.98659 2463 ft 194 kts 356°
2026-05-04 18:49 52.66399 7.98461 2464 ft 195 kts 356°
2026-05-04 18:49 52.67743 7.98229 2466 ft 194 kts 355°
2026-05-04 18:49 52.69086 7.97962 2462 ft 195 kts 354°
2026-05-04 18:50 52.70429 7.97660 2462 ft 194 kts 353°
2026-05-04 18:50 52.71764 7.97326 2464 ft 194 kts 352°
2026-05-04 18:50 52.73080 7.96963 2463 ft 194 kts 351°
2026-05-04 18:50 52.74426 7.96558 2466 ft 194 kts 349°
2026-05-04 18:51 52.75753 7.96122 2458 ft 195 kts 348°
2026-05-04 18:51 52.77065 7.95657 2460 ft 195 kts 348°
2026-05-04 18:51 52.78390 7.95152 2460 ft 195 kts 347°
2026-05-04 18:51 52.79710 7.94614 2459 ft 195 kts 346°
2026-05-04 18:52 52.81026 7.94041 2460 ft 195 kts 345°
2026-05-04 18:52 52.82335 7.93435 2460 ft 195 kts 344°
2026-05-04 18:52 52.83640 7.92794 2461 ft 196 kts 343°
2026-05-04 18:52 52.84939 7.92120 2461 ft 196 kts 342°
2026-05-04 18:53 52.86232 7.91413 2463 ft 195 kts 342°
2026-05-04 18:53 52.87517 7.90673 2461 ft 195 kts 341°
2026-05-04 18:53 52.88793 7.89900 2467 ft 195 kts 340°
2026-05-04 18:53 52.90063 7.89096 2467 ft 195 kts 339°
2026-05-04 18:54 52.91326 7.88257 2467 ft 196 kts 338°
2026-05-04 18:54 52.92582 7.87384 2468 ft 196 kts 337°
2026-05-04 18:54 52.93833 7.86477 2469 ft 196 kts 336°
2026-05-04 18:54 52.95074 7.85540 2468 ft 196 kts 335°
2026-05-04 18:55 52.96306 7.84572 2473 ft 196 kts 334°
2026-05-04 18:55 52.98725 7.82554 2473 ft 196 kts 333°
2026-05-04 18:55 52.99927 7.81491 2480 ft 195 kts 331°
2026-05-04 18:56 53.01177 7.80649 2472 ft 195 kts 346°
2026-05-04 18:56 53.02502 7.80224 2472 ft 193 kts 350°
2026-05-04 18:56 53.03817 7.80551 2464 ft 195 kts 25°
2026-05-04 18:56 53.04981 7.81695 2467 ft 195 kts 31°
2026-05-04 18:57 53.06127 7.82896 2467 ft 194 kts 31°
2026-05-04 18:57 53.07268 7.84103 2467 ft 195 kts 32°
2026-05-04 18:57 53.08410 7.85312 2469 ft 195 kts 32°
2026-05-04 18:57 53.09555 7.86522 2472 ft 195 kts 31°
2026-05-04 18:58 53.10698 7.87732 2472 ft 195 kts 32°
2026-05-04 18:58 53.11840 7.88948 2471 ft 195 kts 32°
2026-05-04 18:58 53.12982 7.90161 2472 ft 195 kts 32°
2026-05-04 18:58 53.14124 7.91372 2471 ft 195 kts 32°
2026-05-04 18:59 53.15264 7.92582 2472 ft 195 kts 32°
2026-05-04 18:59 53.16514 7.93399 2469 ft 193 kts 12°
2026-05-04 18:59 53.17810 7.93997 2468 ft 194 kts 18°
2026-05-04 18:59 53.19067 7.94823 2471 ft 194 kts 22°
2026-05-04 19:00 53.20256 7.95866 2472 ft 194 kts 37°
2026-05-04 19:00 53.21003 7.97706 2469 ft 195 kts 74°
2026-05-04 19:00 53.20919 7.99934 2471 ft 196 kts 112°
2026-05-04 19:00 53.20042 8.01612 2468 ft 195 kts 150°
2026-05-04 19:01 53.18738 8.02045 2468 ft 194 kts 188°
2026-05-04 19:01 53.17557 8.01059 2462 ft 193 kts 226°
2026-05-04 19:01 53.16998 7.99114 2463 ft 192 kts 263°
2026-05-04 19:01 53.17280 7.96985 2467 ft 191 kts 301°
2026-05-04 19:02 53.18295 7.95604 2467 ft 192 kts 339°
2026-05-04 19:02 53.19611 7.95558 2470 ft 193 kts 17°
2026-05-04 19:02 53.20677 7.96875 2468 ft 195 kts 54°
2026-05-04 19:02 53.21041 7.99017 2467 ft 196 kts 92°
2026-05-04 19:03 53.20548 8.01090 2468 ft 195 kts 130°
2026-05-04 19:03 53.19406 8.02224 2468 ft 194 kts 168°
2026-05-04 19:03 53.18093 8.01956 2468 ft 193 kts 206°
2026-05-04 19:03 53.17166 8.00408 2464 ft 192 kts 244°
2026-05-04 19:04 53.17013 7.98243 2462 ft 191 kts 282°
2026-05-04 19:04 53.17697 7.96391 2466 ft 192 kts 320°
2026-05-04 19:04 53.18928 7.95626 2468 ft 193 kts 357°
2026-05-04 19:04 53.20255 7.95973 2474 ft 193 kts 11°
2026-05-04 19:05 53.21552 7.96568 2480 ft 194 kts 18°
2026-05-04 19:05 53.22806 7.97404 2480 ft 194 kts 22°
2026-05-04 19:05 53.24048 7.98299 2483 ft 194 kts 22°
2026-05-04 19:05 53.25296 7.99178 2484 ft 194 kts 22°
2026-05-04 19:06 53.26543 8.00045 2484 ft 194 kts 21°
2026-05-04 19:06 53.27790 8.00912 2483 ft 194 kts 22°
2026-05-04 19:06 53.29036 8.01780 2484 ft 194 kts 22°
2026-05-04 19:06 53.30285 8.02651 2483 ft 194 kts 22°
2026-05-04 19:07 53.31517 8.03511 2480 ft 194 kts 22°
2026-05-04 19:07 53.32769 8.04384 2481 ft 195 kts 21°
2026-05-04 19:07 53.34017 8.05255 2479 ft 195 kts 22°
2026-05-04 19:07 53.35266 8.06127 2481 ft 194 kts 22°
2026-05-04 19:08 53.36513 8.07001 2480 ft 194 kts 22°
2026-05-04 19:08 53.37762 8.07874 2483 ft 194 kts 22°
2026-05-04 19:08 53.39011 8.08749 2484 ft 194 kts 22°
2026-05-04 19:08 53.40258 8.09623 2483 ft 194 kts 22°
2026-05-04 19:09 53.41512 8.10474 2483 ft 194 kts 17°
2026-05-04 19:09 53.42847 8.10671 2479 ft 193 kts 353°
2026-05-04 19:09 53.44121 8.10010 2488 ft 192 kts 334°
2026-05-04 19:09 53.45333 8.09034 2277 ft 198 kts 333°
2026-05-04 19:10 53.46412 8.08099 1661 ft 131 kts 335°
2026-05-04 19:10 53.47103 8.07531 1069 ft 96 kts 339°
2026-05-04 19:10 53.47724 8.07028 468 ft 104 kts 332°
2026-05-04 19:10 53.48344 8.06586 380 ft 94 kts 341°
2026-05-04 19:11 53.48949 8.06162 287 ft 97 kts 339°
2026-05-04 19:11 53.49554 8.05715 183 ft 83 kts 340°
2026-05-04 19:11 53.50004 8.05406 53 ft 61 kts 343°
2026-05-04 19:11 53.50358 8.05153 29 ft 39 kts 337°
2026-05-04 19:12 53.50538 8.05032 27 ft 19 kts
2026-05-04 19:12 53.50676 8.05205 28 ft 12 kts 67°
2026-05-04 19:12 53.50665 8.05252 28 ft 4 kts 174°
2026-05-04 19:13 53.50660 8.05253 28 ft 0 kts 177°